Tracking 23610 objects as of 20-Sep-2021
HD Live streaming from Space Station
objects crossing your sky now

STARLINK-2452

Track STARLINK-2452 now!
10-day predictions
STARLINK-2452 is classified as:


NORAD ID: 48115
Int'l Code: 2021-027Z
Perigee: 554.1 km
Apogee: 554.7 km
Inclination: 53.1 °
Period: 95.6 minutes
Semi major axis: 6925 km
RCS: Unknown
Launch date: April 7, 2021
Source: United States (US)
Launch site: AIR FORCE EASTERN TEST RANGE (AFETR)
aabbcc
Your satellite tracking list
Your tracking list is empty




NASA's NSSDC Master Catalog

Two Line Element Set (TLE):
1 48115U 21027Z   21262.81014399  .00000480  00000-0  51080-4 0  9999
2 48115  53.0532 287.4063 0000422  87.1675 272.9362 15.06394413 26590
Source of the keplerian elements: AFSPC